Wind_Speed
21 21 20 18 17 17 17 18 17 16 15 15 15 15 14 14 13 14 17 19 19 19 18 18 18 16 16 16 16 16 15 15 17 18 19 18 19 20 21 23 24 25 25 25 26 27 28 28 29 29 29 30 30 30 31 32 32 32 32 32 32 31 30 28 27 25 25 25 22 20 20 20 19 19 20 18 16 15 15 15 15 13 8 6 6
20 19 18 17 16 16 16 17 18 17 15 14 15 15 14 13 14 15 18 19 18 19 19 18 18 16 14 14 16 16 14 15 17 18 18 18 18 20 20 21 22 23 24 25 25 26 27 27 28 28 28 29 30 30 31 32 32 33 33 33 32 32 31 30 29 28 27 25 23 22 21 20 20 19 18 17 15 15 15 15 15 13 10 10 10
19 18 17 16 16 16 16 16 17 16 15 14 14 15 14 13 12 13 16 18 17 19 19 17 16 14 13 14 15 14 14 14 16 18 18 17 17 19 20 20 21 21 23 23 24 25 26 26 26 27 28 29 29 30 31 31 32 33 33 33 33 33 32 32 31 30 29 27 25 24 24 22 20 18 16 16 14 15 16 16 16 15 14 15 15
19 18 17 16 16 16 15 14 15 15 14 13 12 13 13 13 13 11 14 17 18 19 19 16 14 12 13 13 13 12 13 13 16 17 17 16 16 18 19 19 20 20 21 22 23 24 24 24 25 26 27 28 29 30 30 31 32 33 33 34 34 34 33 33 32 31 30 29 28 27 26 24 21 18 16 14 14 15 16 17 17 18 18 19 18
18 18 16 16 16 15 14 13 13 13 13 12 12 12 12 12 12 11 11 15 18 20 19 16 13 12 13 13 12 10 11 14 17 16 14 14 15 17 18 19 19 19 20 21 22 22 23 23 24 25 26 27 28 29 30 31 32 33 34 34 34 34 34 34 33 32 31 29 29 29 28 27 24 21 18 14 14 15 16 17 17 18 19 20 20
17 16 16 15 15 14 14 13 12 12 13 13 13 13 12 12 12 12 11 12 16 18 19 16 12 13 14 13 11 9 10 14 16 14 13 13 13 14 16 18 20 19 19 20 21 21 22 22 22 23 25 26 27 28 29 31 32 33 34 35 35 35 35 35 34 33 32 30 29 29 28 28 26 24 21 17 15 15 15 17 17 16 17 18 19
15 14 14 14 13 13 13 12 12 12 13 13 12 12 12 12 13 13 12 11 12 15 17 15 12 12 12 11 10 9 10 13 13 13 14 13 12 12 13 16 19 18 18 19 20 21 21 20 21 22 23 24 25 27 28 29 31 33 34 35 35 36 36 35 35 34 33 32 30 29 28 28 27 26 24 21 18 16 16 17 17 16 15 15 16
14 13 13 13 13 13 12 12 11 11 11 11 10 10 11 12 12 13 12 10 11 14 16 14 12 11 10 10 9 9 9 11 11 12 13 12 11 11 12 15 17 16 17 17 18 19 19 19 19 20 21 23 24 25 26 28 30 32 33 35 35 36 36 36 35 34 33 33 31 29 28 27 27 27 26 24 20 17 16 16 16 16 15 13 13
13 12 12 13 13 12 11 11 10 9 9 8 9 9 10 11 11 11 12 12 12 14 15 15 14 12 9 9 8 7 8 9 9 11 11 10 9 10 11 15 15 14 17 17 16 18 18 17 18 18 20 21 22 23 25 26 28 30 32 33 35 35 36 36 36 35 34 33 32 30 28 27 27 27 26 26 23 19 17 16 16 16 16 14 13
12 11 12 12 12 12 11 11 10 9 8 8 8 8 10 11 11 12 13 13 13 14 15 16 16 13 10 9 7 7 7 8 9 9 9 10 10 8 10 14 13 12 16 16 15 17 17 17 16 17 18 19 21 22 23 25 27 28 30 31 33 34 35 35 36 36 34 33 32 31 28 26 26 26 26 26 25 22 19 16 16 16 16 15 14
11 11 11 12 12 12 11 11 10 9 8 8 7 8 10 11 12 13 14 14 13 13 14 15 16 14 11 9 8 7 6 8 8 7 8 10 11 9 10 13 11 11 14 14 13 15 17 17 16 15 16 18 19 20 22 24 25 27 29 30 31 32 33 34 35 35 34 33 32 31 29 26 25 25 25 25 25 24 22 18 16 15 15 15 14
11 12 11 11 11 11 11 10 9 9 9 8 8 9 11 13 12 12 14 14 12 12 11 12 14 13 10 9 8 7 6 7 6 5 8 11 11 9 10 12 9 9 11 10 11 14 17 17 15 14 15 17 17 18 20 22 24 25 27 29 30 31 32 33 34 34 34 33 32 31 30 27 25 24 24 25 25 25 24 21 18 16 15 14 15
11 12 11 10 10 10 11 10 9 8 9 8 9 10 11 13 12 12 12 12 12 11 9 11 14 12 9 9 8 8 8 6 6 5 11 12 11 9 9 9 7 7 8 8 8 12 16 16 15 14 14 15 15 16 18 21 22 23 25 27 28 29 30 31 33 33 33 32 31 31 30 28 25 23 23 23 24 24 24 23 21 18 16 14 14
10 10 11 10 9 9 10 10 9 8 9 9 9 10 11 13 12 12 12 12 13 13 10 12 15 13 11 11 9 9 9 7 6 5 10 11 11 9 7 5 5 6 6 6 7 9 13 14 13 14 14 14 14 14 16 19 20 22 23 25 26 28 29 30 31 32 32 32 30 30 30 29 27 24 22 21 22 23 23 24 23 20 18 15 14
9 9 10 10 9 9 9 10 9 8 9 9 9 10 12 13 13 12 12 13 14 14 12 12 14 14 13 11 11 11 11 8 5 4 6 5 7 8 7 4 2 5 4 4 6 8 11 12 12 13 13 13 14 14 15 17 18 20 22 23 24 26 27 28 30 31 31 31 29 29 29 29 27 25 22 21 21 22 22 23 23 22 20 18 15
9 9 9 9 9 10 9 9 9 9 9 10 10 10 11 13 13 13 13 15 15 15 13 12 12 13 11 11 11 12 11 8 5 3 3 2 1 4 5 5 3 4 4 4 6 7 8 9 11 13 12 12 14 14 14 15 16 18 20 22 23 24 26 27 28 29 30 30 28 27 28 29 28 26 24 21 19 20 21 21 21 22 21 20 18
9 9 9 8 9 9 9 9 9 8 8 9 9 9 10 11 12 13 13 14 15 16 15 13 11 11 11 12 12 12 11 10 7 4 3 3 3 2 5 6 6 6 5 5 5 6 7 9 11 11 12 11 12 14 14 13 14 16 19 20 21 23 25 25 26 27 28 28 27 26 27 28 28 26 25 23 20 18 19 20 20 20 21 21 20
9 8 8 7 8 9 9 9 8 7 8 8 8 8 9 10 12 13 12 11 13 15 14 14 14 12 12 13 12 10 11 12 9 7 5 4 4 5 7 7 7 7 7 6 6 7 7 10 11 10 10 11 10 12 13 13 13 16 18 18 19 21 23 24 24 26 27 26 26 24 25 26 27 27 25 23 22 19 17 18 19 19 19 20 20
9 8 8 8 7 8 9 8 8 7 7 7 8 8 9 9 11 12 12 10 11 13 13 15 15 13 12 12 11 9 11 12 11 11 11 9 8 7 7 7 5 5 7 8 9 9 8 10 10 9 10 10 10 11 12 13 14 15 17 17 18 20 21 23 23 24 25 25 24 22 23 25 25 26 25 24 23 21 18 17 17 18 18 18 18
9 9 8 8 7 8 8 7 7 7 6 6 7 7 8 9 9 10 11 11 11 11 13 14 13 12 11 10 9 9 11 13 13 12 11 9 8 5 4 4 4 5 6 8 9 10 9 10 9 9 10 9 9 10 11 12 14 15 16 17 18 19 20 21 22 23 23 23 22 21 21 23 24 25 25 24 23 22 20 17 16 16 17 17 17
9 9 9 8 7 7 7 7 7 7 6 6 6 7 8 8 9 10 10 11 11 11 11 12 11 11 11 10 9 8 9 11 14 13 9 7 6 5 5 4 5 7 7 6 7 9 10 12 11 9 9 9 9 10 11 12 13 14 15 16 17 18 19 20 21 22 22 21 20 19 19 21 23 23 24 23 22 22 22 20 17 15 15 16 16
9 9 9 8 8 8 8 7 7 7 6 6 6 7 7 7 9 10 10 10 11 11 10 11 10 9 10 12 12 9 8 10 12 10 8 7 6 6 6 5 6 6 5 3 5 8 10 11 11 9 9 11 11 9 11 13 14 14 14 14 16 17 18 19 19 20 20 20 19 18 18 20 21 22 23 22 22 21 21 21 20 17 14 14 14
9 9 9 8 8 8 8 7 7 7 7 6 6 7 7 6 6 8 9 9 10 10 10 11 11 10 11 13 12 10 9 9 8 7 7 7 6 6 7 6 5 5 5 4 5 8 9 9 8 7 9 11 11 10 11 12 13 13 12 13 15 16 17 18 18 19 19 18 18 16 17 18 19 21 22 21 21 20 20 20 20 19 17 14 13
9 9 9 9 9 9 8 7 7 7 6 5 6 7 7 6 6 6 7 9 10 10 11 12 10 10 12 12 9 9 9 8 8 8 8 7 7 7 6 6 6 5 5 5 5 6 8 8 7 7 8 9 10 11 12 12 13 12 12 13 14 14 15 16 17 17 17 17 17 16 16 17 18 19 20 21 20 19 19 19 19 20 19 17 14
10 10 10 10 9 9 8 8 7 7 6 6 6 6 6 6 6 6 6 7 9 10 10 11 10 9 11 10 8 8 9 8 8 9 8 7 8 8 7 6 6 6 5 6 6 6 7 8 7 7 9 9 10 12 12 13 14 12 11 12 12 13 14 15 15 15 15 15 15 15 15 15 16 17 18 19 19 18 18 18 18 18 18 18 16
11 11 10 10 10 9 9 8 8 8 7 7 7 7 7 6 6 7 7 6 7 8 9 11 11 10 10 10 9 9 9 9 9 7 6 7 8 9 7 7 8 7 6 7 7 7 6 7 8 8 9 9 10 12 11 12 12 11 10 9 10 12 13 14 14 12 13 14 14 14 14 15 16 16 17 18 18 18 17 17 17 17 17 17 16
11 10 10 10 9 9 9 8 8 8 8 7 7 7 7 7 7 7 8 7 6 7 8 9 10 10 10 10 10 9 8 8 8 7 6 6 7 7 8 9 10 8 8 8 8 7 6 7 9 9 10 9 10 11 10 10 10 9 8 8 10 12 13 13 11 10 11 12 13 13 13 14 15 16 17 17 17 17 17 16 16 16 17 17 16
10 10 9 10 9 9 9 9 9 8 8 8 7 7 8 8 8 8 8 7 7 7 7 7 8 9 10 10 10 10 9 8 8 8 7 7 7 7 7 8 9 9 9 9 8 8 7 8 9 10 11 10 10 10 9 8 9 9 9 10 11 12 13 12 9 9 9 10 11 11 12 14 15 15 16 17 17 17 16 16 15 15 16 16 16
9 9 9 9 9 10 10 9 9 9 8 8 7 8 8 8 8 8 8 7 8 8 8 8 8 9 9 9 9 10 10 9 10 9 8 8 8 8 8 7 8 9 9 8 8 8 8 9 10 10 10 10 10 11 9 8 10 11 11 11 12 12 12 10 8 8 8 9 10 10 11 13 14 15 15 16 16 16 16 16 15 15 15 15 16
8 8 8 8 9 9 10 10 10 10 9 9 8 8 9 8 8 8 8 8 8 8 8 8 9 9 9 8 9 9 9 9 10 10 8 8 8 9 8 7 7 8 8 7 7 7 7 9 10 11 11 10 9 10 9 8 10 10 10 11 11 12 11 8 7 7 7 8 10 9 10 12 13 14 14 14 15 15 15 15 15 15 14 14 15
6 7 7 8 8 9 9 9 10 10 9 9 9 9 9 8 8 8 8 8 9 8 8 8 9 9 9 8 9 9 9 9 9 9 9 8 8 9 8 6 6 6 6 5 6 6 5 6 8 10 11 10 9 8 8 9 9 9 9 9 9 11 10 7 7 7 6 8 10 9 10 11 11 12 13 14 14 15 15 15 14 14 14 14 14
6 7 7 7 8 8 8 8 9 9 8 8 9 9 8 8 9 8 8 8 9 9 8 8 8 8 8 8 8 9 9 9 9 10 9 9 9 9 8 7 6 5 5 5 5 6 6 5 6 8 9 9 8 7 7 7 8 8 8 9 9 9 9 8 9 9 7 8 10 10 9 9 9 10 11 12 13 14 14 14 14 14 13 13 13
6 6 6 7 7 7 7 8 8 8 7 8 8 8 8 8 8 8 8 8 8 8 8 8 9 8 8 7 7 8 8 8 9 10 10 10 9 8 7 6 6 6 5 5 5 6 6 6 6 6 6 6 5 5 5 5 7 7 7 8 8 8 8 9 10 10 8 8 10 10 9 9 9 8 8 9 10 12 13 13 13 13 12 12 12
6 6 6 6 7 7 8 8 8 7 7 7 7 7 7 7 8 8 8 8 7 6 6 7 8 7 7 7 7 7 7 8 8 9 10 10 9 8 7 6 6 6 5 5 5 4 4 5 4 4 4 3 4 4 4 5 6 6 6 6 6 7 9 9 8 9 9 10 11 11 11 10 9 8 8 8 9 10 10 11 12 11 11 11 12
6 6 6 7 7 7 7 7 7 7 7 7 6 7 7 7 8 8 7 7 7 7 6 7 7 6 7 7 7 7 7 8 8 8 9 10 9 8 8 7 7 6 4 4 4 3 3 4 4 3 3 4 4 4 5 5 5 7 7 6 6 7 9 8 8 9 10 11 11 12 12 11 10 9 9 9 9 9 8 9 10 9 9 10 10
6 6 6 7 6 6 6 6 7 7 8 7 6 6 6 6 7 7 6 7 7 8 7 7 7 6 6 6 6 6 7 7 8 8 9 9 9 8 8 7 6 5 4 3 2 2 3 4 4 4 5 5 5 5 4 4 5 6 7 6 6 7 8 8 8 9 10 10 11 11 12 12 12 10 10 10 10 9 9 9 9 8 7 8 8
8 7 7 6 5 6 7 7 7 7 8 8 7 7 7 7 7 6 6 7 8 8 7 7 7 7 7 7 6 6 6 7 7 7 7 7 7 8 7 6 4 4 4 2 1 2 2 3 4 4 5 5 5 5 4 4 6 6 7 6 5 4 5 6 7 8 9 9 10 11 11 12 12 11 10 10 10 10 10 9 8 7 7 7 7
9 9 8 7 6 7 8 8 8 8 8 8 8 8 7 7 7 6 6 6 7 7 7 8 8 8 7 8 8 7 7 7 6 6 6 6 6 7 6 4 4 4 3 2 2 2 3 3 4 4 5 5 6 6 6 6 7 8 7 5 3 2 3 4 5 6 8 9 10 10 11 11 12 12 12 12 12 12 10 8 7 7 6 6 7
11 10 10 10 8 9 10 9 9 9 9 9 9 9 9 8 8 7 6 6 6 7 7 8 8 8 8 8 8 8 6 6 6 5 5 5 6 6 5 4 5 5 4 4 3 3 4 5 5 5 6 6 7 7 8 9 9 9 7 5 4 4 5 5 6 8 8 9 10 10 11 12 12 12 12 13 13 13 11 9 8 7 6 6 7
13 12 13 12 11 10 10 11 11 10 10 10 10 10 10 10 9 8 7 7 7 8 8 8 8 8 8 9 9 9 7 6 6 6 6 6 6 6 6 5 6 6 5 5 5 5 6 6 7 7 7 8 9 9 10 10 9 8 7 6 6 6 6 7 9 11 12 12 11 11 12 13 12 12 12 12 13 12 12 11 11 9 9 9 9
13 14 14 14 13 12 12 12 12 12 11 10 11 11 11 11 11 10 10 9 9 9 9 10 9 9 10 10 10 11 10 8 8 8 8 7 7 7 7 7 7 6 6 7 7 8 8 8 8 8 9 10 10 10 11 11 9 8 8 8 9 8 8 8 9 12 14 15 14 12 13 14 13 12 13 13 13 12 11 11 12 12 12 12 12
14 15 14 15 15 14 14 14 14 13 11 11 11 11 12 13 13 13 12 11 11 11 10 10 10 12 12 11 10 10 9 9 10 10 9 9 8 8 9 8 8 8 8 8 9 9 9 9 9 10 10 10 11 11 11 11 10 10 10 10 10 10 11 10 8 10 14 16 16 13 13 15 15 13 14 14 13 12 12 12 12 12 13 13 12
17 17 17 17 18 17 16 15 14 14 13 12 12 12 13 14 15 15 14 14 13 13 11 11 12 13 12 11 10 10 10 11 11 11 10 9 9 10 10 9 9 8 8 9 9 10 10 10 11 11 11 11 11 11 11 10 11 12 12 13 13 13 13 13 11 11 14 16 17 14 13 14 14 13 14 14 13 13 13 13 14 13 14 14 13
20 20 20 19 20 19 19 17 16 14 14 13 14 14 14 14 15 16 15 16 16 15 14 14 14 13 13 12 12 12 11 11 11 11 11 11 10 11 11 10 9 9 9 9 10 11 12 12 12 12 13 12 11 11 11 11 12 13 13 14 15 15 15 15 15 15 16 17 17 14 13 13 13 12 13 13 13 13 13 14 15 16 16 15 15
23 23 21 21 21 22 22 21 19 16 15 14 14 14 14 15 16 16 17 19 19 17 17 16 15 13 14 14 13 12 11 11 10 10 11 11 10 10 10 10 10 10 11 11 11 12 12 13 13 13 13 13 12 12 13 13 13 14 14 15 15 16 16 17 18 18 18 18 17 15 13 13 12 12 12 12 12 12 13 13 15 16 17 17 17
26 25 24 24 24 25 25 25 24 20 18 17 16 15 15 15 16 16 18 21 20 18 17 17 15 15 15 14 14 13 13 13 12 11 11 10 11 11 11 11 12 12 13 14 13 13 14 14 14 14 14 15 15 15 15 14 14 15 15 16 17 17 17 18 19 20 20 19 18 16 14 14 13 11 11 11 11 11 12 13 14 15 16 17 17
26 25 25 25 26 27 28 28 27 24 21 20 19 18 17 16 16 17 20 22 21 18 18 18 17 17 16 15 14 14 14 14 14 14 13 13 14 15 15 15 15 15 16 16 16 15 15 15 16 16 16 16 16 16 15 14 14 15 17 18 19 19 19 19 19 19 19 19 18 16 15 15 14 12 11 10 9 10 12 13 14 15 16 16 17
27 26 26 27 27 28 30 30 29 27 25 23 22 20 19 19 18 18 21 23 20 18 19 19 19 19 19 17 16 16 15 14 15 15 15 16 16 17 18 18 17 17 18 18 17 16 16 17 18 18 18 18 18 17 15 15 16 17 18 18 18 19 18 19 18 17 17 18 18 17 16 15 15 13 11 11 11 11 13 13 14 15 15 16 16
28 27 28 29 29 30 32 33 31 29 28 27 26 24 21 21 21 21 22 23 21 19 19 20 20 20 20 19 19 18 17 16 16 16 17 18 18 19 19 19 18 19 20 19 18 18 18 19 19 19 19 19 19 18 16 17 18 18 18 17 17 17 18 17 16 15 16 18 18 17 16 15 15 14 12 12 12 13 13 14 14 14 14 15 15
25 25 26 28 29 31 33 34 33 32 31 31 30 28 25 24 24 24 23 22 22 21 20 20 20 20 20 20 20 20 20 20 19 18 18 19 19 19 20 20 20 20 21 21 21 21 21 20 20 19 19 19 19 18 18 18 19 20 19 17 16 17 18 17 16 15 15 17 17 16 15 14 14 14 13 12 12 13 14 13 14 14 14 13 13
23 23 23 25 27 29 31 33 33 34 36 36 33 30 28 27 27 26 25 23 22 22 22 23 22 21 20 20 21 21 21 21 21 20 20 20 19 20 21 21 22 22 21 21 21 21 20 20 19 19 19 19 19 20 20 20 20 20 18 17 17 18 18 17 16 15 14 14 14 13 13 12 12 12 12 10 8 9 10 11 12 13 13 12 13
Wind_Direction
121 121 120 121 120 120 123 126 130 128 128 128 123 120 118 119 124 129 125 117 113 111 111 111 105 102 101 99 99 94 88 84 82 79 74 72 76 79 81 81 81 79 77 74 69 65 62 61 60 60 59 58 57 56 56 55 55 54 53 52 51 50 50 50 49 47 46 44 42 36 29 28 28 31 28 22 26 20 19 23 21 33 53 77 105
120 120 120 122 121 122 126 130 133 131 131 131 126 121 118 121 127 127 124 118 116 116 115 110 105 103 106 107 103 97 90 86 85 82 76 71 75 80 81 81 80 78 76 73 70 66 62 62 62 61 59 57 56 55 55 54 54 54 53 52 50 49 48 48 48 47 47 46 43 39 34 31 28 33 28 19 26 30 31 33 33 44 64 81 95
120 120 120 121 121 121 126 132 132 130 131 132 129 123 119 121 120 121 123 120 118 117 113 106 101 106 113 110 105 101 92 87 89 86 78 73 74 80 80 80 78 76 75 73 70 66 63 63 63 62 60 57 56 55 54 53 53 53 53 52 50 49 47 46 46 45 46 46 46 43 40 38 34 35 32 21 25 37 41 43 47 55 68 78 85
123 122 123 122 122 122 126 131 129 127 129 131 128 122 122 123 117 122 126 123 123 119 113 107 104 111 114 110 110 106 97 96 93 84 78 76 76 78 79 77 75 73 73 71 68 65 63 64 64 63 61 58 56 54 53 52 52 52 52 51 50 48 47 45 45 44 44 45 46 47 45 45 42 42 42 32 32 44 48 51 58 64 71 77 84
126 127 127 125 125 127 130 130 127 125 125 126 125 121 121 120 116 119 123 127 132 127 117 112 113 119 116 109 109 104 99 98 89 79 75 76 77 78 76 75 72 69 69 69 66 63 63 64 64 63 61 59 57 54 53 52 51 50 50 49 48 48 46 45 44 43 43 44 44 46 48 48 46 45 48 44 42 49 53 56 64 72 78 83 89
126 128 129 130 129 128 128 125 125 128 128 126 124 123 121 120 120 120 122 132 140 135 124 118 125 127 115 106 107 108 104 97 88 86 84 74 72 75 73 72 69 63 63 64 63 61 61 62 63 63 61 60 58 56 53 52 50 48 47 47 46 46 45 44 43 42 41 42 43 44 47 48 48 46 48 51 52 54 57 60 66 76 84 87 91
126 129 129 128 125 121 122 123 128 132 128 123 122 124 123 121 122 122 125 135 142 137 127 125 129 121 110 109 115 118 110 98 90 90 86 71 66 73 70 68 65 58 56 56 56 57 58 60 61 61 61 59 58 57 54 52 50 47 46 45 44 44 43 43 42 42 41 40 41 42 45 47 49 49 49 52 56 58 61 64 67 73 83 88 90
127 129 127 125 123 121 124 126 127 124 120 120 120 125 127 124 124 124 126 132 138 134 128 131 129 114 111 120 121 119 109 97 89 86 82 72 71 79 74 64 59 54 52 49 50 52 53 57 58 56 58 58 58 56 54 52 50 48 46 44 43 42 41 41 40 40 40 40 40 41 43 45 48 50 50 52 56 61 64 68 70 72 77 84 88
124 126 125 124 122 121 120 116 114 113 117 122 121 126 132 129 126 126 126 128 137 138 137 141 133 119 122 125 115 113 113 107 99 87 84 83 80 81 78 67 55 53 53 47 49 51 49 52 54 53 52 54 55 54 52 51 49 48 46 43 41 40 39 39 38 38 38 40 40 40 41 43 46 49 51 52 55 60 64 69 73 75 77 81 86
121 121 121 121 120 120 118 114 114 117 119 120 124 135 139 135 132 131 130 132 144 150 150 148 137 127 129 125 105 108 119 112 98 82 85 93 81 71 75 64 50 53 53 44 46 51 51 50 49 50 49 49 50 50 50 49 48 46 44 42 40 38 37 36 36 35 36 38 39 40 40 42 45 48 51 53 55 58 63 67 72 77 80 82 85
123 123 124 125 123 122 121 118 119 120 120 120 130 144 146 144 141 137 136 141 152 160 159 150 136 124 121 115 101 111 123 111 98 81 85 86 73 66 66 55 40 49 53 43 43 48 51 51 46 46 46 46 45 45 47 46 45 44 42 40 39 37 35 34 34 33 33 35 37 40 40 41 44 46 50 54 56 58 62 66 69 74 80 83 86
131 129 130 130 123 124 124 122 125 126 129 134 141 146 148 147 144 142 145 149 157 164 163 147 128 112 109 113 107 113 115 113 120 96 79 69 63 71 66 51 38 45 47 36 39 46 49 50 49 48 45 43 41 40 44 44 41 41 40 39 37 36 34 32 32 31 30 32 35 38 40 40 42 46 48 51 55 57 60 65 68 72 76 81 85
138 135 134 131 125 126 129 133 138 137 139 145 143 141 143 143 144 148 150 153 159 162 160 141 123 109 114 122 113 110 103 111 143 103 65 46 41 62 66 49 44 47 40 22 26 46 49 47 48 49 45 42 39 38 42 43 38 35 37 38 37 35 33 31 30 30 28 29 32 36 39 41 42 45 48 50 53 56 59 61 65 70 74 79 84
142 139 134 132 129 129 134 141 144 144 145 143 137 137 139 140 143 148 147 152 161 159 153 141 126 118 125 126 113 108 102 107 143 112 66 37 18 32 36 22 44 50 38 19 16 38 47 42 42 44 40 37 37 34 37 41 37 32 31 33 36 35 33 30 29 28 27 26 29 33 37 40 42 44 48 50 52 55 58 60 61 65 69 76 82
144 140 138 137 135 134 139 142 141 145 145 136 134 141 144 143 144 147 150 160 165 156 148 144 135 133 133 127 115 105 98 96 109 99 81 55 3 6 350 317 33 40 27 34 26 31 41 35 31 35 32 31 33 29 31 36 34 31 29 29 33 35 32 30 28 27 26 24 27 31 34 38 42 43 46 50 52 54 57 60 62 62 64 68 73
145 143 142 141 140 140 141 139 137 141 139 132 136 145 146 145 145 150 160 169 166 152 145 144 142 143 134 125 124 116 111 112 106 86 96 139 287 341 327 309 341 8 7 32 35 32 35 30 23 24 23 27 31 27 27 30 28 29 30 29 30 32 31 29 27 27 25 23 24 29 33 35 40 43 45 48 52 54 55 59 63 64 63 64 65
150 149 147 147 147 145 142 139 138 142 140 136 139 143 143 143 144 147 159 170 164 152 148 145 147 149 133 122 129 130 129 130 133 140 140 169 203 282 325 327 328 340 346 354 27 26 20 27 26 22 17 17 25 24 22 24 24 27 29 29 29 29 29 28 27 27 25 23 23 27 32 34 37 41 44 47 50 54 55 56 59 63 65 65 65
156 158 157 156 154 150 150 146 143 149 146 139 139 139 139 142 146 146 151 165 164 158 157 155 155 154 140 134 139 143 139 136 150 178 175 180 220 272 301 307 315 337 347 356 34 22 6 24 27 22 14 9 19 22 20 22 23 26 25 25 27 27 27 27 27 28 25 23 23 26 31 33 35 38 41 45 48 52 55 55 55 58 62 65 66
163 167 166 163 158 158 159 153 151 156 149 141 137 137 143 150 155 154 153 159 165 167 171 166 161 155 147 148 150 146 143 150 172 189 185 199 226 255 284 293 306 336 345 1 22 10 5 25 20 8 3 3 18 21 19 23 22 24 24 21 24 26 26 25 24 27 26 23 23 25 31 34 35 36 39 43 46 49 54 56 56 54 56 60 64
171 173 173 169 164 164 164 161 160 158 150 149 142 140 149 152 156 158 153 154 161 171 177 171 162 156 152 157 163 156 153 165 187 195 194 214 231 235 257 275 298 324 329 339 354 353 6 25 14 2 358 355 12 15 15 25 25 23 21 17 20 22 22 23 22 25 26 24 24 26 31 34 36 37 37 39 44 47 50 54 58 57 53 54 57
179 179 179 178 175 176 176 175 172 162 158 161 158 154 151 145 151 156 155 159 163 168 177 172 162 159 156 157 167 172 165 169 188 205 218 233 236 233 234 240 278 307 319 328 339 340 0 23 19 13 13 5 9 12 13 21 23 19 15 14 17 16 17 20 20 22 24 25 26 28 32 35 37 39 38 38 41 45 48 51 55 59 58 54 52
184 185 186 185 185 188 187 186 181 170 170 174 173 164 150 147 154 157 161 167 166 169 176 174 170 170 166 162 165 176 176 166 178 203 227 237 237 247 261 273 293 306 309 319 340 338 355 20 20 15 20 10 5 11 15 13 11 11 12 12 11 10 13 18 18 19 22 25 28 31 34 36 37 40 40 38 39 43 46 48 50 55 60 59 55
191 192 192 193 193 196 196 194 189 183 183 185 181 164 151 155 156 157 166 170 168 172 174 174 181 185 181 177 174 178 177 167 173 192 203 217 230 242 255 271 297 316 312 318 342 345 357 15 14 13 18 8 359 3 10 6 1 5 9 9 8 6 9 15 17 18 21 26 30 33 36 38 38 40 42 40 38 40 43 47 48 50 54 58 60
199 201 197 199 200 202 204 201 200 198 193 191 185 169 162 170 162 157 168 172 172 176 177 178 190 198 195 189 180 180 182 176 188 201 196 203 226 239 240 248 271 294 298 307 320 331 355 7 3 9 9 2 358 354 358 1 359 1 5 7 8 5 8 14 15 17 23 27 31 34 36 39 41 40 42 42 39 38 39 43 46 48 49 52 55
199 205 202 202 204 206 206 202 202 205 200 196 195 183 182 189 178 166 168 172 175 180 185 186 193 205 203 196 187 192 199 196 203 212 211 212 232 245 241 246 271 287 283 285 297 314 341 345 339 349 348 351 358 348 346 355 356 355 358 3 6 5 11 14 13 19 27 27 29 34 35 38 40 40 42 43 42 39 37 37 41 44 47 48 49
197 202 201 202 206 206 205 205 204 207 206 205 203 197 203 208 198 187 183 182 179 181 188 191 196 204 204 202 206 209 210 219 228 228 224 224 234 248 252 262 279 287 283 289 306 322 329 321 320 329 330 339 351 344 342 349 350 352 356 1 5 10 17 15 13 23 30 27 28 31 33 35 36 38 40 42 42 41 39 36 35 37 40 43 46
201 204 201 202 207 207 206 208 210 212 213 215 212 207 212 216 211 206 200 195 191 191 191 194 201 207 207 211 219 220 215 227 247 255 250 246 247 252 254 261 272 276 279 289 301 306 305 304 309 310 313 329 342 341 345 349 349 355 2 7 10 14 19 14 12 23 27 27 29 28 30 31 32 33 35 38 40 40 40 38 35 33 34 36 39
204 208 207 204 207 209 209 209 210 216 217 220 223 218 219 219 215 216 211 202 202 207 205 205 210 212 212 215 221 228 228 233 251 259 263 267 264 256 250 254 266 272 278 286 287 287 290 293 296 299 310 331 342 342 347 351 357 6 8 9 13 16 18 13 9 17 22 25 27 27 28 27 28 30 31 33 35 36 37 37 36 34 32 32 34
208 211 215 215 213 213 214 213 213 217 220 223 227 226 226 225 221 219 215 210 211 216 215 215 220 223 223 222 223 230 235 236 247 259 269 277 274 269 266 264 268 271 277 287 292 296 298 297 302 309 317 333 342 342 346 360 10 13 8 6 12 16 16 12 8 9 17 24 22 23 27 24 24 26 27 28 30 31 32 33 34 33 31 31 30
210 212 217 223 222 218 218 219 219 219 220 223 224 225 229 230 231 228 218 214 219 220 219 220 224 227 230 231 233 236 237 236 245 258 269 275 273 274 276 272 273 278 287 297 301 303 301 296 302 310 316 328 336 336 347 7 14 11 7 8 13 17 14 10 8 7 14 21 18 19 23 20 19 20 21 22 22 24 26 28 30 29 28 28 27
210 215 217 222 223 220 218 220 222 223 222 224 224 225 228 230 233 234 223 217 224 225 223 224 227 229 229 233 237 238 240 241 246 253 259 265 269 275 283 289 291 294 302 306 301 301 303 293 291 296 306 319 328 336 348 1 6 8 12 14 18 22 19 9 8 8 7 14 16 17 16 13 14 15 16 15 13 14 18 20 23 24 24 24 24
210 213 215 221 223 220 219 220 223 224 223 223 226 228 230 231 233 235 228 222 227 230 230 232 235 235 233 234 236 236 240 244 249 254 257 259 263 273 285 294 298 298 300 305 298 298 306 305 294 291 301 312 321 336 347 353 1 6 11 14 16 23 22 10 13 16 7 10 18 18 10 8 11 12 11 7 3 4 7 11 15 16 18 19 19
213 214 216 222 227 225 223 223 222 222 223 222 225 228 228 231 234 235 232 227 225 228 231 237 241 242 242 243 242 241 243 244 248 254 258 259 262 272 283 291 299 298 297 300 299 302 310 315 309 302 304 309 317 337 354 359 5 6 8 9 7 17 19 13 19 22 10 7 17 17 11 11 13 9 3 358 353 353 356 1 6 8 9 11 11
213 216 220 222 229 233 230 228 223 220 223 220 220 226 227 230 234 234 232 231 229 228 232 238 243 245 246 251 254 254 252 251 250 251 256 260 259 263 274 282 289 293 292 287 291 305 317 315 313 310 314 318 327 351 6 8 13 12 10 10 7 12 14 10 13 15 8 5 7 5 3 5 8 4 353 342 340 343 346 351 356 -0 2 3 4
217 218 222 219 223 231 232 232 228 225 228 227 225 228 228 229 232 231 229 229 228 226 230 237 240 241 244 250 256 257 258 258 256 254 256 261 262 262 267 269 276 288 288 278 289 321 330 317 321 334 341 344 354 9 11 8 11 8 7 12 10 4 2 1 3 3 2 359 354 351 351 355 358 352 339 333 335 338 341 343 345 350 354 354 356
225 226 227 221 219 227 233 235 234 233 235 235 232 232 234 234 235 234 227 225 225 222 224 229 232 234 236 241 246 254 261 260 256 252 253 260 267 265 265 270 281 289 280 271 302 333 325 314 323 341 345 350 358 1 357 354 357 358 358 1 358 353 354 356 356 355 355 354 350 348 350 351 348 339 329 331 336 337 337 337 336 340 344 343 345
232 232 230 228 228 234 238 237 236 237 237 238 234 230 233 234 236 237 229 225 227 225 223 226 228 227 225 228 234 241 250 252 250 249 247 252 260 261 263 269 274 276 274 281 303 309 312 316 327 336 337 340 340 334 330 339 345 344 343 341 337 341 354 354 352 353 355 357 354 352 351 345 337 331 329 335 341 340 336 334 333 335 334 330 332
237 239 234 234 238 242 244 241 238 237 235 237 238 235 233 232 231 233 230 231 236 231 226 223 222 219 216 220 226 229 235 240 239 238 238 237 240 246 253 256 256 261 267 270 275 289 304 307 313 316 314 315 315 317 325 330 329 325 325 333 339 344 353 357 359 358 357 353 347 344 341 334 327 328 333 338 343 344 339 332 330 333 329 321 322
236 240 239 237 236 238 244 245 242 241 238 237 238 236 235 233 231 231 230 234 239 235 229 223 220 219 217 219 223 225 230 238 235 228 231 239 241 241 246 247 244 241 237 242 255 272 284 291 299 303 306 307 307 312 318 315 314 317 322 336 350 346 351 359 354 349 345 340 336 334 329 322 320 323 328 331 334 338 337 330 325 322 314 310 311
232 234 236 237 234 233 239 244 243 242 240 238 237 237 236 234 232 233 232 232 235 235 230 224 219 219 222 225 227 224 219 222 230 225 219 226 233 236 240 238 236 239 245 256 266 273 281 289 297 303 305 303 303 305 307 307 314 324 326 328 333 337 351 359 348 337 332 329 329 331 323 314 313 316 315 317 321 326 329 324 318 311 306 310 312
240 240 238 235 234 231 231 238 244 243 242 243 243 240 240 239 235 234 236 236 237 235 228 224 221 221 224 226 227 226 217 208 217 224 220 220 224 228 232 232 236 245 255 267 276 283 291 297 300 304 306 304 306 308 310 315 323 324 318 319 324 329 336 345 340 328 322 319 321 327 320 313 315 317 311 310 314 317 315 311 309 309 310 313 314
260 259 255 248 243 234 225 228 237 241 242 246 249 244 241 242 240 238 237 237 238 238 233 230 230 228 227 227 228 232 231 222 222 225 225 225 226 231 234 236 243 254 264 277 287 294 300 304 306 308 308 308 311 316 321 325 322 315 313 315 318 319 320 323 324 319 314 311 313 320 318 312 315 317 312 308 310 311 307 302 301 303 304 305 307
263 264 265 263 256 247 238 232 234 239 241 240 241 241 239 239 240 241 239 235 235 238 238 236 238 239 239 238 235 235 238 238 236 234 230 229 233 239 241 243 250 260 271 281 290 295 300 305 308 310 310 310 312 317 324 323 317 313 313 311 311 312 313 314 315 314 311 306 307 314 316 311 309 308 306 305 305 307 305 302 300 298 297 299 301
255 256 260 263 262 260 257 247 236 238 244 242 237 234 234 236 239 241 242 239 235 235 237 237 240 244 247 247 242 237 240 244 244 244 243 241 242 244 246 249 254 261 270 278 286 294 300 305 310 312 311 310 310 313 316 315 311 309 308 307 309 309 310 313 314 315 314 309 306 310 314 312 304 296 293 297 299 299 300 300 300 298 297 298 298
255 255 255 257 260 263 263 255 247 242 243 245 242 235 232 235 239 241 242 241 236 230 231 236 239 242 246 250 249 245 248 251 247 242 243 244 246 248 250 253 259 267 274 279 285 291 296 301 303 304 304 303 303 304 306 307 306 304 303 305 307 306 308 312 315 317 318 314 310 311 314 312 304 293 285 286 289 291 292 293 294 295 296 297 297
258 258 256 254 257 262 262 260 258 253 246 243 245 244 238 237 241 245 246 246 243 235 232 235 239 241 242 244 246 245 250 256 252 245 242 243 249 256 259 260 264 270 274 277 280 285 291 295 297 298 297 298 300 302 304 305 305 305 304 305 305 305 308 312 314 317 318 316 313 313 314 313 310 305 295 288 287 289 290 291 292 294 295 296 296
257 257 255 252 252 255 258 259 258 257 253 247 246 248 246 242 243 246 249 250 250 246 242 239 239 241 241 241 243 247 253 258 258 256 253 250 253 260 264 265 267 270 272 273 276 281 287 291 293 293 292 294 297 298 298 299 301 303 304 304 305 306 308 309 310 314 316 315 314 314 315 315 314 314 309 301 296 295 295 296 298 299 298 297 297
257 256 255 253 249 248 252 255 255 254 254 253 251 249 249 248 247 247 249 252 255 253 249 246 245 245 245 246 250 254 257 260 261 261 261 260 261 263 264 266 268 271 273 275 278 283 288 291 293 293 293 293 293 292 291 292 296 300 302 305 309 311 310 307 308 313 315 311 309 312 315 314 311 312 311 307 302 297 296 298 300 300 299 299 300
259 256 255 254 250 247 249 253 254 253 254 256 255 252 249 250 252 252 253 257 259 255 250 249 251 251 251 251 254 255 256 258 259 260 261 263 263 261 261 265 268 271 275 279 283 287 289 292 293 294 294 293 291 290 290 292 296 300 302 307 314 315 312 308 309 313 312 307 307 310 311 309 308 308 308 307 303 299 297 298 297 295 295 297 299
264 261 257 253 251 249 249 251 253 253 253 253 252 250 247 246 250 254 258 262 263 260 256 253 254 256 256 258 259 259 259 259 258 259 261 262 261 259 260 264 268 271 276 280 284 287 288 290 290 290 290 290 289 289 288 291 295 299 303 311 315 313 311 311 310 310 308 306 307 309 309 309 310 309 309 310 306 301 299 296 292 291 292 293 294
267 268 264 257 253 251 250 251 253 254 253 250 246 245 245 244 247 251 255 259 262 263 262 259 257 257 258 259 262 263 264 264 262 261 262 263 263 263 263 266 269 272 275 278 282 285 287 288 288 289 290 290 287 284 284 288 294 298 304 310 308 304 305 307 306 305 305 304 305 307 309 311 315 315 315 318 313 305 302 298 294 294 295 295 295
Height
3231 3232 3233 3234 3235 3236 3237 3237 3239 3240 3240 3241 3241 3242 3242 3243 3243 3244 3244 3244 3244 3245 3247 3248 3249 3251 3252 3253 3253 3253 3254 3255 3254 3254 3253 3253 3253 3252 3252 3252 3251 3250 3250 3249 3248 3247 3246 3245 3244 3243 3241 3240 3239 3237 3235 3234 3232 3230 3228 3226 3224 3222 3219 3217 3214 3212 3210 3208 3205 3203 3201 3200 3198 3195 3194 3194 3192 3190 3188 3186 3185 3183 3182 3181 3181
3232 3233 3234 3236 3236 3237 3238 3238 3239 3240 3241 3242 3242 3242 3243 3244 3244 3244 3244 3244 3245 3246 3248 3249 3250 3252 3254 3254 3254 3255 3255 3256 3255 3255 3255 3255 3255 3254 3254 3254 3253 3252 3251 3250 3250 3249 3247 3246 3245 3244 3243 3242 3241 3239 3238 3236 3234 3233 3231 3229 3227 3224 3222 3219 3217 3214 3211 3209 3207 3204 3202 3200 3198 3196 3196 3195 3193 3191 3189 3188 3186 3184 3183 3182 3181
3234 3234 3235 3237 3237 3238 3239 3240 3240 3241 3242 3243 3243 3243 3244 3244 3245 3245 3245 3245 3246 3247 3248 3249 3251 3253 3255 3255 3255 3256 3257 3257 3257 3256 3256 3257 3257 3256 3256 3256 3255 3254 3253 3252 3251 3250 3249 3248 3247 3246 3245 3244 3243 3241 3240 3238 3236 3235 3233 3231 3229 3227 3224 3222 3219 3216 3213 3210 3208 3206 3204 3202 3200 3198 3198 3196 3194 3192 3191 3189 3188 3186 3185 3184 3183
3234 3235 3236 3237 3238 3239 3240 3241 3241 3242 3243 3244 3244 3244 3245 3245 3246 3247 3247 3246 3247 3248 3249 3250 3252 3254 3255 3256 3256 3257 3258 3258 3258 3257 3257 3258 3259 3258 3258 3257 3256 3256 3255 3254 3253 3252 3251 3250 3248 3248 3247 3246 3245 3243 3242 3240 3239 3237 3235 3233 3231 3229 3227 3224 3221 3218 3215 3213 3210 3208 3206 3204 3202 3200 3199 3197 3195 3194 3193 3191 3190 3189 3187 3186 3185
3235 3236 3237 3238 3239 3240 3241 3242 3242 3243 3244 3244 3245 3245 3246 3247 3247 3248 3248 3248 3249 3249 3250 3251 3252 3254 3255 3256 3257 3258 3259 3259 3258 3258 3259 3260 3260 3259 3259 3258 3258 3257 3256 3255 3254 3253 3252 3251 3250 3249 3248 3247 3246 3245 3244 3242 3241 3239 3237 3235 3233 3231 3229 3226 3224 3221 3218 3215 3213 3210 3208 3206 3204 3202 3200 3199 3197 3195 3194 3193 3192 3192 3191 3190 3189
3236 3237 3238 3239 3240 3241 3242 3242 3243 3244 3244 3245 3245 3246 3247 3247 3248 3249 3249 3250 3251 3251 3251 3251 3253 3255 3256 3257 3258 3259 3260 3260 3259 3260 3261 3261 3261 3261 3261 3260 3259 3259 3258 3257 3256 3255 3254 3253 3252 3251 3250 3249 3248 3247 3245 3244 3242 3241 3239 3237 3235 3233 3231 3228 3226 3223 3220 3217 3215 3213 3210 3208 3206 3204 3202 3200 3199 3197 3196 3195 3194 3194 3193 3193 3193
3237 3238 3239 3240 3241 3242 3242 3243 3244 3245 3245 3245 3246 3247 3247 3248 3249 3250 3251 3252 3252 3253 3253 3253 3255 3256 3257 3258 3259 3260 3260 3260 3261 3261 3261 3262 3262 3262 3262 3261 3260 3260 3260 3259 3258 3257 3256 3255 3254 3253 3252 3251 3249 3248 3247 3245 3244 3242 3241 3239 3237 3235 3232 3230 3228 3226 3223 3220 3217 3215 3213 3211 3209 3206 3204 3202 3201 3200 3198 3197 3196 3196 3195 3195 3195
3239 3240 3240 3241 3242 3242 3243 3244 3245 3245 3246 3246 3247 3248 3249 3250 3250 3251 3252 3253 3254 3254 3254 3255 3256 3257 3258 3259 3260 3261 3261 3262 3262 3262 3262 3263 3263 3263 3262 3261 3261 3262 3261 3260 3259 3258 3257 3256 3256 3255 3253 3252 3251 3250 3248 3247 3245 3244 3242 3240 3239 3237 3234 3232 3230 3228 3225 3223 3220 3217 3215 3213 3211 3209 3207 3204 3203 3202 3200 3199 3198 3198 3197 3197 3197
3240 3241 3242 3242 3242 3243 3244 3245 3245 3246 3246 3247 3248 3249 3250 3251 3251 3252 3253 3254 3255 3255 3255 3255 3256 3257 3259 3260 3261 3262 3262 3263 3263 3263 3263 3264 3264 3263 3263 3262 3262 3262 3262 3262 3260 3259 3258 3258 3257 3256 3255 3254 3253 3251 3250 3248 3247 3245 3243 3242 3240 3238 3236 3234 3232 3230 3228 3225 3222 3219 3217 3215 3213 3211 3209 3207 3205 3203 3202 3202 3201 3200 3200 3199 3199
3240 3241 3242 3243 3243 3244 3244 3245 3246 3247 3247 3248 3249 3250 3251 3252 3253 3253 3254 3255 3255 3255 3256 3256 3256 3257 3259 3261 3262 3262 3263 3263 3263 3263 3263 3264 3264 3264 3263 3262 3262 3263 3263 3263 3261 3260 3259 3259 3258 3257 3257 3255 3254 3253 3252 3250 3248 3247 3245 3243 3242 3240 3238 3236 3234 3232 3230 3227 3225 3222 3219 3217 3215 3213 3211 3209 3207 3206 3204 3204 3203 3202 3202 3202 3201
3242 3242 3243 3244 3244 3245 3245 3246 3247 3247 3248 3249 3250 3251 3252 3253 3253 3254 3255 3255 3256 3256 3257 3257 3257 3258 3260 3261 3262 3263 3263 3264 3264 3264 3264 3264 3265 3265 3264 3263 3263 3263 3263 3263 3263 3261 3260 3259 3259 3258 3258 3257 3255 3254 3253 3252 3250 3249 3247 3245 3243 3241 3240 3238 3236 3234 3232 3229 3227 3224 3222 3219 3217 3215 3213 3211 3210 3208 3207 3206 3205 3204 3204 3204 3203
3243 3244 3244 3245 3246 3246 3246 3247 3248 3248 3249 3250 3251 3252 3253 3253 3254 3255 3255 3256 3256 3257 3258 3258 3259 3260 3261 3262 3263 3263 3264 3264 3265 3264 3264 3264 3265 3266 3265 3264 3264 3264 3264 3264 3263 3262 3261 3260 3260 3259 3259 3258 3257 3256 3254 3253 3252 3250 3248 3247 3245 3243 3241 3239 3237 3235 3233 3231 3229 3226 3224 3221 3219 3217 3215 3214 3212 3210 3209 3208 3207 3207 3206 3205 3205
3244 3245 3245 3246 3247 3247 3247 3248 3249 3250 3250 3251 3252 3253 3253 3254 3255 3255 3256 3256 3257 3258 3258 3259 3260 3261 3262 3263 3263 3264 3264 3265 3265 3265 3264 3264 3265 3266 3266 3265 3265 3264 3264 3264 3263 3263 3262 3261 3261 3260 3259 3258 3258 3257 3256 3254 3253 3252 3250 3248 3246 3244 3243 3241 3239 3237 3235 3233 3231 3228 3226 3224 3221 3219 3218 3216 3214 3212 3211 3210 3209 3209 3208 3207 3207
3245 3246 3246 3247 3248 3248 3249 3249 3250 3251 3251 3252 3252 3253 3253 3254 3255 3256 3257 3257 3258 3258 3259 3260 3261 3262 3262 3263 3264 3264 3264 3265 3265 3264 3264 3264 3265 3265 3266 3266 3265 3265 3265 3264 3263 3263 3262 3262 3262 3261 3260 3259 3258 3258 3257 3255 3254 3253 3251 3250 3248 3246 3244 3243 3241 3238 3236 3235 3233 3230 3228 3226 3224 3221 3220 3218 3216 3215 3213 3212 3211 3210 3210 3209 3209
3246 3246 3247 3248 3248 3249 3250 3250 3251 3251 3252 3252 3253 3253 3254 3254 3255 3256 3257 3258 3258 3258 3259 3260 3261 3262 3263 3263 3264 3265 3265 3264 3264 3264 3264 3264 3265 3265 3266 3266 3265 3265 3265 3265 3264 3263 3263 3263 3263 3262 3261 3260 3259 3258 3257 3256 3255 3254 3253 3251 3249 3247 3246 3244 3242 3240 3238 3236 3234 3232 3230 3227 3226 3223 3222 3220 3218 3217 3216 3214 3213 3212 3211 3211 3211
3246 3247 3248 3249 3249 3250 3250 3251 3251 3251 3252 3252 3253 3254 3255 3255 3255 3256 3257 3258 3258 3258 3259 3261 3262 3263 3263 3264 3264 3265 3265 3265 3265 3264 3264 3264 3265 3265 3266 3266 3265 3265 3265 3265 3264 3264 3264 3263 3263 3262 3261 3260 3259 3259 3258 3257 3256 3255 3253 3252 3250 3249 3247 3245 3244 3241 3239 3238 3236 3234 3231 3229 3227 3225 3224 3222 3220 3219 3218 3217 3216 3215 3213 3213 3212
3246 3247 3248 3249 3250 3251 3251 3251 3252 3252 3252 3253 3254 3255 3255 3256 3256 3257 3258 3258 3259 3259 3259 3260 3262 3263 3264 3265 3265 3265 3266 3266 3265 3265 3264 3265 3265 3265 3266 3266 3265 3265 3265 3265 3265 3264 3264 3264 3263 3262 3261 3261 3260 3259 3258 3257 3257 3255 3254 3253 3252 3250 3248 3246 3245 3243 3241 3239 3237 3235 3233 3231 3229 3227 3225 3224 3222 3221 3220 3219 3217 3217 3216 3215 3214
3247 3248 3249 3250 3251 3251 3252 3252 3252 3253 3253 3253 3254 3255 3255 3256 3257 3257 3258 3259 3259 3259 3259 3260 3261 3262 3264 3264 3265 3266 3266 3266 3266 3265 3265 3265 3265 3266 3267 3267 3266 3265 3265 3265 3265 3265 3265 3264 3263 3263 3262 3261 3261 3260 3259 3258 3257 3256 3255 3254 3252 3251 3249 3248 3246 3244 3242 3241 3239 3237 3235 3233 3230 3229 3227 3225 3224 3222 3221 3220 3219 3218 3217 3217 3216
3248 3249 3250 3251 3251 3252 3252 3253 3253 3253 3254 3254 3255 3256 3256 3256 3257 3258 3258 3259 3260 3260 3260 3260 3261 3262 3264 3264 3265 3266 3266 3267 3267 3266 3266 3266 3267 3267 3267 3267 3267 3266 3265 3265 3265 3266 3265 3264 3264 3264 3263 3262 3261 3260 3260 3258 3257 3256 3255 3254 3253 3252 3250 3248 3247 3246 3244 3242 3240 3238 3237 3235 3232 3230 3229 3227 3226 3224 3223 3221 3220 3220 3219 3218 3217
3248 3249 3250 3251 3252 3252 3253 3253 3254 3254 3255 3255 3256 3256 3256 3257 3257 3258 3258 3259 3260 3261 3261 3261 3262 3263 3264 3264 3265 3266 3266 3267 3267 3267 3267 3267 3268 3268 3268 3267 3267 3266 3266 3265 3265 3265 3265 3265 3265 3264 3263 3262 3261 3261 3260 3259 3258 3257 3256 3255 3253 3252 3251 3249 3248 3246 3245 3243 3242 3240 3238 3236 3234 3232 3230 3229 3227 3226 3224 3223 3222 3221 3220 3219 3219
3248 3249 3250 3251 3252 3252 3253 3254 3254 3255 3255 3255 3256 3256 3256 3257 3257 3258 3259 3259 3260 3261 3262 3262 3263 3263 3264 3264 3265 3266 3266 3266 3267 3267 3267 3267 3267 3267 3267 3267 3267 3267 3266 3266 3265 3265 3264 3264 3264 3263 3263 3262 3261 3261 3260 3259 3258 3257 3256 3255 3254 3253 3251 3250 3248 3247 3246 3244 3243 3241 3239 3238 3236 3234 3232 3231 3229 3227 3226 3225 3223 3222 3222 3221 3220
3248 3249 3250 3251 3252 3252 3253 3254 3254 3255 3255 3255 3256 3256 3257 3257 3257 3258 3259 3260 3261 3261 3262 3263 3263 3264 3264 3264 3264 3265 3266 3266 3267 3267 3267 3267 3267 3266 3266 3267 3267 3267 3266 3266 3266 3265 3264 3264 3264 3263 3262 3262 3261 3260 3259 3258 3258 3257 3257 3255 3254 3253 3252 3250 3249 3248 3246 3245 3244 3242 3241 3239 3237 3236 3234 3232 3231 3229 3228 3226 3225 3224 3223 3222 3222
3248 3249 3250 3251 3251 3252 3253 3254 3254 3255 3255 3256 3256 3257 3257 3258 3258 3258 3259 3260 3261 3261 3262 3263 3263 3263 3263 3263 3263 3264 3265 3266 3266 3266 3267 3267 3267 3266 3266 3266 3266 3266 3266 3265 3266 3265 3264 3264 3264 3263 3262 3261 3261 3260 3259 3258 3258 3257 3256 3255 3254 3253 3252 3251 3249 3248 3247 3246 3244 3243 3242 3240 3238 3237 3235 3234 3233 3231 3229 3228 3227 3225 3224 3224 3223
3248 3249 3250 3250 3251 3252 3253 3254 3255 3255 3256 3256 3257 3257 3257 3258 3258 3258 3259 3260 3260 3261 3262 3262 3263 3263 3263 3263 3264 3264 3265 3265 3265 3265 3265 3265 3265 3266 3266 3266 3266 3266 3265 3264 3265 3264 3264 3264 3264 3263 3262 3262 3261 3260 3259 3258 3258 3257 3256 3255 3254 3253 3252 3251 3250 3248 3247 3246 3245 3244 3243 3241 3240 3238 3237 3235 3234 3233 3231 3230 3228 3227 3226 3225 3224
3248 3249 3250 3250 3251 3252 3253 3254 3254 3255 3256 3256 3257 3257 3258 3258 3258 3259 3259 3260 3260 3261 3261 3262 3263 3263 3263 3264 3264 3264 3264 3264 3264 3264 3264 3264 3264 3264 3265 3265 3265 3266 3265 3265 3264 3264 3264 3263 3263 3263 3262 3261 3260 3260 3259 3258 3257 3257 3256 3255 3254 3253 3252 3250 3250 3249 3247 3246 3245 3244 3243 3242 3241 3239 3238 3236 3235 3234 3233 3231 3230 3228 3227 3226 3225
3247 3248 3249 3250 3251 3252 3252 3253 3254 3255 3255 3256 3256 3257 3258 3258 3258 3259 3259 3260 3260 3261 3261 3262 3262 3262 3263 3264 3264 3264 3264 3264 3263 3264 3264 3264 3264 3264 3264 3264 3265 3265 3264 3264 3264 3264 3263 3263 3263 3262 3261 3261 3260 3259 3259 3258 3257 3256 3255 3254 3254 3253 3251 3250 3249 3248 3247 3246 3245 3245 3244 3243 3241 3240 3239 3238 3236 3235 3234 3233 3231 3230 3229 3227 3226
3247 3248 3249 3250 3251 3251 3252 3253 3253 3254 3255 3255 3256 3257 3257 3258 3258 3259 3259 3259 3260 3260 3261 3261 3262 3262 3263 3263 3263 3263 3264 3263 3263 3264 3264 3264 3264 3263 3264 3264 3264 3264 3264 3264 3264 3264 3263 3263 3262 3261 3261 3260 3260 3259 3258 3258 3257 3256 3255 3254 3253 3252 3250 3250 3249 3248 3247 3246 3245 3245 3244 3243 3242 3241 3240 3239 3237 3236 3235 3234 3233 3231 3230 3229 3227
3246 3247 3248 3249 3250 3251 3251 3252 3252 3253 3254 3255 3255 3256 3257 3257 3258 3258 3259 3259 3260 3260 3260 3261 3261 3262 3262 3263 3263 3263 3263 3263 3263 3263 3264 3264 3263 3263 3263 3263 3263 3263 3263 3263 3263 3263 3262 3262 3262 3261 3260 3260 3259 3259 3258 3257 3256 3255 3254 3253 3252 3251 3250 3250 3249 3248 3247 3246 3245 3245 3244 3243 3242 3241 3240 3239 3238 3237 3236 3235 3234 3232 3231 3230 3229
3245 3247 3248 3248 3249 3250 3250 3251 3252 3252 3253 3254 3255 3255 3256 3256 3257 3258 3258 3259 3259 3259 3260 3260 3261 3261 3262 3262 3262 3262 3263 3263 3262 3262 3263 3263 3263 3263 3263 3263 3263 3263 3263 3263 3262 3262 3261 3261 3260 3260 3259 3259 3259 3258 3257 3257 3256 3254 3254 3253 3252 3251 3250 3249 3249 3248 3247 3246 3245 3245 3244 3243 3242 3241 3240 3239 3238 3238 3237 3236 3235 3233 3232 3231 3230
3245 3246 3247 3248 3248 3249 3250 3250 3251 3252 3252 3253 3254 3255 3255 3256 3256 3257 3258 3258 3259 3259 3259 3259 3260 3260 3261 3261 3261 3261 3262 3262 3262 3262 3262 3262 3262 3262 3262 3263 3262 3262 3262 3262 3261 3261 3261 3260 3259 3258 3258 3258 3257 3257 3256 3255 3255 3254 3253 3252 3251 3251 3250 3249 3249 3248 3247 3246 3245 3245 3244 3243 3242 3241 3240 3239 3238 3237 3237 3236 3235 3234 3233 3232 3231
3244 3245 3246 3247 3247 3248 3249 3249 3250 3251 3252 3252 3253 3254 3255 3255 3256 3256 3257 3258 3258 3258 3258 3259 3259 3259 3260 3260 3260 3261 3261 3261 3261 3261 3261 3261 3261 3261 3261 3262 3262 3262 3261 3261 3260 3260 3259 3259 3258 3257 3257 3256 3256 3256 3255 3255 3254 3254 3253 3252 3251 3251 3250 3249 3248 3247 3246 3246 3245 3244 3244 3243 3242 3241 3240 3239 3238 3237 3236 3235 3235 3234 3233 3232 3231
3243 3244 3245 3246 3246 3247 3248 3248 3249 3250 3251 3252 3252 3253 3254 3255 3255 3256 3256 3257 3257 3257 3257 3258 3258 3258 3259 3259 3259 3259 3260 3260 3260 3260 3260 3260 3260 3260 3260 3261 3261 3260 3260 3260 3260 3259 3258 3258 3258 3257 3256 3256 3255 3255 3255 3254 3254 3253 3253 3252 3251 3251 3250 3250 3248 3247 3246 3246 3245 3244 3243 3242 3241 3240 3240 3239 3238 3237 3236 3235 3234 3234 3233 3232 3231
3242 3243 3244 3245 3245 3246 3247 3248 3248 3249 3250 3251 3252 3252 3253 3254 3254 3255 3255 3256 3256 3256 3257 3257 3257 3257 3258 3258 3258 3258 3258 3259 3259 3259 3259 3259 3259 3259 3259 3259 3259 3259 3259 3259 3259 3258 3258 3257 3257 3256 3256 3256 3255 3255 3255 3254 3254 3253 3253 3252 3251 3251 3250 3249 3248 3247 3246 3246 3245 3244 3243 3242 3241 3240 3239 3239 3238 3237 3236 3235 3234 3233 3232 3232 3231
3241 3242 3243 3243 3244 3245 3246 3247 3248 3248 3249 3250 3250 3251 3252 3252 3253 3254 3254 3255 3255 3255 3256 3256 3256 3256 3257 3257 3257 3257 3257 3257 3257 3258 3258 3258 3258 3259 3259 3258 3258 3258 3258 3258 3258 3258 3257 3257 3256 3256 3255 3255 3255 3254 3254 3254 3253 3253 3252 3252 3251 3251 3250 3249 3248 3247 3246 3245 3244 3243 3242 3241 3240 3239 3239 3238 3237 3236 3235 3234 3234 3233 3232 3231 3231
3241 3241 3242 3243 3243 3244 3245 3246 3247 3247 3248 3249 3249 3250 3251 3251 3252 3252 3253 3253 3254 3254 3254 3255 3255 3255 3256 3256 3256 3256 3256 3256 3256 3256 3256 3256 3257 3258 3258 3258 3258 3258 3258 3257 3257 3257 3256 3256 3256 3255 3255 3254 3254 3254 3253 3253 3252 3252 3252 3251 3251 3250 3249 3248 3247 3246 3245 3245 3244 3243 3242 3240 3239 3239 3238 3237 3236 3235 3234 3233 3233 3232 3231 3230 3230
3240 3240 3241 3241 3242 3243 3244 3245 3245 3246 3247 3248 3248 3249 3249 3250 3251 3251 3252 3252 3252 3252 3253 3253 3254 3254 3254 3255 3255 3255 3255 3255 3255 3255 3255 3255 3256 3256 3256 3256 3257 3257 3257 3256 3256 3256 3256 3255 3255 3254 3254 3253 3253 3253 3252 3252 3251 3251 3250 3250 3250 3249 3248 3247 3246 3245 3244 3244 3243 3242 3240 3239 3238 3238 3237 3236 3235 3234 3233 3232 3232 3231 3230 3229 3229
3238 3239 3239 3240 3241 3241 3242 3243 3244 3245 3246 3246 3247 3248 3248 3249 3250 3250 3251 3251 3251 3251 3252 3252 3252 3253 3253 3253 3253 3253 3253 3253 3253 3253 3254 3254 3254 3255 3255 3255 3256 3256 3256 3255 3255 3255 3255 3254 3254 3253 3253 3253 3252 3252 3251 3251 3250 3250 3250 3249 3249 3248 3247 3246 3245 3244 3243 3242 3241 3240 3239 3238 3237 3236 3236 3235 3234 3233 3232 3231 3230 3230 3229 3228 3227
3236 3237 3238 3238 3239 3240 3241 3241 3242 3243 3244 3245 3246 3246 3247 3248 3248 3249 3249 3250 3250 3250 3251 3251 3251 3251 3251 3252 3252 3252 3252 3252 3252 3252 3253 3253 3253 3253 3254 3254 3254 3254 3254 3254 3254 3254 3254 3253 3253 3253 3252 3252 3252 3251 3250 3250 3249 3249 3249 3249 3248 3248 3247 3245 3244 3243 3242 3241 3240 3239 3238 3237 3236 3235 3234 3233 3232 3231 3231 3230 3229 3228 3228 3227 3226
3235 3235 3236 3237 3238 3239 3239 3240 3241 3241 3242 3243 3244 3245 3245 3246 3247 3247 3248 3248 3249 3249 3250 3250 3250 3250 3250 3250 3250 3250 3251 3251 3251 3251 3251 3252 3252 3252 3252 3253 3253 3253 3253 3253 3252 3252 3252 3252 3252 3252 3251 3251 3250 3250 3249 3249 3248 3248 3248 3247 3247 3247 3246 3244 3243 3242 3241 3240 3239 3238 3237 3236 3234 3233 3232 3231 3231 3230 3229 3229 3228 3227 3226 3226 3225
3232 3233 3234 3235 3236 3237 3237 3238 3239 3240 3240 3241 3242 3243 3244 3244 3245 3246 3246 3247 3247 3248 3248 3248 3248 3248 3249 3249 3249 3248 3248 3249 3250 3250 3250 3250 3251 3251 3251 3252 3252 3251 3251 3251 3251 3251 3251 3251 3251 3250 3250 3250 3249 3248 3248 3248 3247 3247 3246 3245 3245 3245 3244 3243 3242 3240 3239 3239 3238 3237 3236 3234 3233 3232 3231 3230 3230 3229 3228 3227 3226 3226 3225 3224 3224
3231 3231 3232 3233 3233 3235 3236 3236 3237 3238 3239 3239 3240 3241 3241 3242 3243 3244 3244 3245 3245 3246 3246 3246 3247 3247 3246 3246 3247 3246 3246 3247 3248 3248 3249 3249 3249 3250 3250 3250 3250 3250 3250 3250 3250 3250 3250 3250 3250 3250 3249 3249 3248 3248 3247 3247 3246 3245 3244 3244 3243 3242 3242 3242 3241 3240 3238 3237 3237 3236 3235 3233 3232 3231 3230 3229 3228 3227 3227 3226 3225 3224 3224 3223 3223
3230 3231 3231 3231 3231 3232 3233 3234 3235 3236 3237 3238 3238 3239 3240 3240 3241 3241 3242 3242 3243 3244 3244 3244 3245 3244 3243 3243 3245 3245 3245 3246 3246 3246 3247 3247 3248 3248 3248 3249 3249 3249 3249 3249 3249 3249 3249 3249 3249 3248 3248 3248 3247 3247 3246 3246 3245 3244 3243 3242 3242 3241 3240 3240 3240 3239 3237 3235 3235 3235 3233 3231 3230 3230 3228 3227 3226 3226 3225 3224 3224 3223 3222 3222 3221
3228 3229 3230 3230 3230 3231 3231 3232 3233 3234 3235 3236 3236 3237 3238 3238 3239 3239 3240 3240 3241 3241 3242 3242 3242 3242 3242 3243 3244 3244 3244 3245 3245 3245 3245 3245 3246 3246 3247 3247 3247 3247 3248 3248 3248 3248 3248 3247 3247 3247 3246 3246 3246 3245 3245 3244 3243 3243 3242 3241 3240 3239 3238 3238 3238 3237 3236 3233 3232 3233 3232 3230 3229 3228 3226 3225 3224 3223 3223 3222 3221 3221 3221 3220 3219
3226 3227 3227 3227 3227 3228 3230 3231 3231 3232 3233 3234 3234 3235 3235 3236 3236 3237 3238 3238 3238 3239 3240 3240 3240 3241 3242 3243 3243 3243 3244 3244 3245 3244 3244 3244 3244 3245 3245 3245 3245 3246 3246 3246 3246 3246 3246 3246 3246 3245 3244 3244 3244 3243 3243 3242 3242 3241 3240 3239 3238 3237 3236 3236 3235 3234 3233 3231 3230 3230 3229 3228 3227 3226 3224 3223 3222 3221 3220 3220 3219 3218 3218 3218 3217
3223 3224 3224 3225 3225 3226 3228 3229 3230 3230 3231 3232 3233 3233 3233 3234 3234 3235 3235 3235 3235 3236 3237 3238 3239 3239 3240 3241 3242 3242 3242 3243 3243 3243 3243 3243 3244 3244 3244 3244 3244 3244 3244 3244 3244 3244 3244 3244 3244 3243 3242 3242 3241 3241 3240 3240 3239 3238 3238 3237 3236 3235 3235 3234 3232 3231 3230 3228 3227 3227 3227 3226 3225 3224 3223 3222 3221 3220 3219 3218 3217 3216 3215 3215 3214
3220 3221 3222 3222 3222 3223 3225 3226 3227 3227 3228 3230 3231 3231 3231 3231 3232 3233 3232 3232 3233 3235 3235 3236 3237 3237 3238 3239 3239 3240 3240 3241 3242 3242 3242 3242 3242 3242 3242 3242 3242 3242 3242 3242 3242 3242 3241 3241 3241 3241 3240 3239 3239 3239 3238 3237 3237 3236 3235 3234 3234 3233 3232 3231 3230 3228 3227 3225 3224 3224 3224 3223 3222 3221 3221 3220 3219 3218 3217 3216 3215 3214 3213 3213 3212
3216 3218 3219 3219 3219 3220 3221 3222 3224 3224 3225 3226 3227 3228 3229 3229 3230 3231 3229 3229 3232 3235 3234 3234 3235 3236 3236 3236 3237 3237 3238 3239 3239 3239 3240 3240 3240 3240 3240 3240 3240 3240 3240 3240 3239 3239 3239 3239 3238 3238 3238 3237 3237 3236 3236 3235 3234 3234 3233 3232 3231 3230 3229 3228 3227 3226 3224 3223 3222 3221 3221 3220 3219 3219 3218 3217 3217 3216 3214 3213 3213 3212 3211 3211 3210
3213 3214 3215 3215 3215 3216 3218 3219 3221 3221 3222 3223 3224 3225 3226 3227 3227 3228 3226 3226 3229 3231 3232 3233 3234 3234 3234 3234 3235 3235 3235 3236 3236 3237 3237 3238 3238 3238 3238 3238 3238 3237 3237 3237 3237 3237 3237 3236 3236 3235 3235 3235 3234 3234 3233 3233 3232 3231 3230 3230 3229 3227 3226 3225 3225 3224 3222 3221 3219 3219 3218 3217 3216 3216 3216 3215 3214 3213 3212 3211 3210 3209 3209 3208 3208
3209 3210 3210 3210 3211 3212 3214 3216 3217 3218 3219 3220 3221 3222 3223 3224 3224 3224 3224 3225 3226 3228 3229 3230 3231 3231 3232 3232 3232 3233 3233 3233 3234 3234 3234 3235 3235 3235 3235 3235 3235 3235 3234 3234 3234 3234 3234 3233 3233 3233 3232 3232 3231 3231 3230 3230 3229 3228 3227 3227 3226 3225 3224 3223 3222 3222 3220 3218 3217 3217 3216 3215 3214 3214 3213 3213 3212 3211 3210 3209 3208 3207 3206 3206 3205
3204 3205 3206 3205 3206 3207 3209 3211 3213 3214 3215 3216 3217 3218 3219 3220 3221 3221 3221 3222 3223 3224 3226 3226 3227 3228 3228 3229 3229 3230 3231 3231 3231 3231 3232 3232 3232 3232 3232 3232 3232 3232 3232 3231 3231 3231 3230 3230 3230 3229 3229 3229 3228 3228 3227 3226 3226 3225 3225 3224 3223 3222 3221 3220 3219 3219 3218 3216 3215 3215 3214 3213 3212 3211 3211 3211 3210 3208 3208 3207 3206 3205 3204 3203 3203
3200 3201 3201 3201 3202 3203 3205 3206 3208 3209 3210 3211 3213 3214 3215 3216 3217 3218 3218 3219 3220 3221 3222 3223 3224 3224 3225 3226 3226 3227 3228 3228 3229 3229 3229 3229 3229 3229 3229 3229 3228 3228 3229 3229 3228 3228 3227 3227 3226 3226 3226 3226 3225 3224 3224 3224 3223 3223 3222 3221 3220 3219 3218 3217 3217 3216 3216 3214 3213 3212 3212 3211 3210 3209 3208 3209 3208 3207 3206 3205 3204 3203 3203 3202 3201